Tin City, AK

8:30 PM AKDT on March 22, 2017 (GMT -0800)
Tin City LRRS

Weather History for PATC - August, 2013

Change the Weather History Date:

Sunday, August 4, 2013

  Actual Average Record
Temperature  
Mean Temperature 42 °F -  
Max Temperature 43 °F 48 °F 66 °F (2014)
Min Temperature 41 °F 42 °F 37 °F (2008)
Degree Days  
Heating Degree Days 22    
Moisture  
Dew Point 43 °F    
Average Humidity 100    
Maximum Humidity 100    
Minimum Humidity 98    
Precipitation  
Precipitation 0.34 in - - ()
Sea Level Pressure  
Sea Level Pressure 29.65 in    
Wind  
Wind Speed 24 mph (NNE)    
Max Wind Speed 26 mph    
Max Gust Speed 29 mph    
Visibility 4 miles    
Events Rain    
Averages and records for this station are not official NWS values.
T = Trace of Precipitation, MM = Missing Value Source: NWS Daily Summary

Daily Weather History Graph

Daily Weather History Graph

Search for Another Location

Airport or City:

Trip Planner

Search our weather history database for the weather conditions in past years. The results will help you decide how hot, cold, wet, or windy it might be!

Date:

Astronomy

Aug. 04, 2013 Rise Set
Actual Time 6:15 AM AKDT 12:16 AM AKDT
Civil Twilight 4:36 AM AKDT 1:52 AM AKDT
Nautical Twilight Sun does not rise Sun does not rise
Astronomical Twilight Sun does not rise Sun does not rise
Moon 4:22 AM AKDT (8/4) 10:39 PM AKDT (8/4)
Length of Visible Light 21h 15m
Length of Day
18h 01m
Waning Crescent, 4% of the Moon is Illuminated
Aug 4
Waning Crescent
Aug 6
New
Aug 14
First Quarter
Aug 20
Full
Aug 28
Last Quarter

Hourly Weather History & Observations

Time (AKDT) Temp. Windchill Dew Point Humidity Pressure Visibility Wind Dir Wind Speed Gust Speed Precip Events Conditions
1:08 AM 44.6 °F 35.5 °F 44.6 °F 100% 29.55 in 2.5 mi NNE 25.3 mph - N/A Rain Light Rain
1:28 AM - - - N/A% 29.55 in 1.8 mi NNE 24.2 mph - N/A Rain Light Rain
1:48 AM - - - N/A% 29.55 in 3.0 mi NNE 23.0 mph - N/A Rain Light Rain
1:55 AM 43.3 °F 34.2 °F 43.5 °F 100% 29.55 in 2.5 mi NNE 23.0 mph - 0.05 in Rain Light Rain
2:08 AM 42.8 °F 33.3 °F 42.8 °F 100% 29.55 in 1.8 mi NNE 24.2 mph - N/A Rain Light Rain
2:28 AM 42.8 °F 33.5 °F 42.8 °F 100% 29.55 in 1.8 mi NNE 23.0 mph - N/A Rain Light Rain
2:48 AM 42.8 °F 33.3 °F 42.8 °F 100% 29.55 in 2.5 mi NNE 24.2 mph - N/A Rain Light Rain
2:55 AM 43.2 °F 34.0 °F 43.3 °F 100% 29.55 in 3.0 mi NNE 23.0 mph - 0.02 in Rain Light Rain
3:55 AM 43.2 °F 33.8 °F 43.2 °F 100% 29.55 in 8.0 mi NNE 24.2 mph - 0.02 in Rain Light Rain
4:55 AM 42.8 °F 32.9 °F 43.0 °F 100% 29.55 in 9.0 mi NNE 26.5 mph - 0.05 in Rain Light Rain
5:55 AM 42.8 °F 33.1 °F 42.8 °F 100% 29.55 in 10.0 mi NNE 25.3 mph - 0.02 in Rain Light Rain
6:55 AM 42.6 °F 33.1 °F 42.6 °F 100% 29.56 in 10.0 mi NNE 24.2 mph - 0.00 in Rain Light Rain
7:55 AM 42.6 °F 32.6 °F 42.4 °F 99% 29.56 in 10.0 mi NNE 26.5 mph - 0.00 in Rain Light Rain
8:08 AM 42.8 °F 32.9 °F 42.8 °F 100% 29.57 in 10.0 mi NNE 26.5 mph - N/A Rain Light Rain
8:55 AM 42.6 °F 32.6 °F 42.4 °F 99% 29.57 in 10.0 mi NNE 26.5 mph - 0.00 in Rain Light Rain
9:55 AM 42.8 °F 33.3 °F 42.8 °F 100% 29.59 in 8.0 mi NNE 24.2 mph - 0.00 in Rain Light Rain
10:55 AM 42.6 °F 33.1 °F 42.6 °F 100% 29.60 in 4.0 mi NNE 24.2 mph - 0.03 in Rain Light Rain
11:28 AM 42.8 °F 33.1 °F 42.8 °F 100% 29.61 in 4.0 mi NNE 25.3 mph 28.8 mph N/A Rain Light Rain
11:48 AM 42.8 °F 33.5 °F 42.8 °F 100% 29.62 in 5.0 mi NNE 23.0 mph 28.8 mph N/A Rain Light Rain
11:55 AM 43.2 °F 33.6 °F 42.8 °F 99% 29.62 in 6.0 mi NNE 25.3 mph - 0.03 in Rain Light Rain
12:28 PM 42.8 °F 33.3 °F 42.8 °F 100% 29.62 in 10.0 mi NNE 24.2 mph - N/A Rain Light Rain
12:55 PM 43.3 °F 34.2 °F 43.0 °F 99% 29.63 in 10.0 mi NNE 23.0 mph 28.8 mph 0.00 in Rain Light Rain
1:08 PM 42.8 °F 34.3 °F 42.8 °F 100% 29.64 in 7.0 mi NNE 19.6 mph - N/A Rain Light Rain
1:55 PM 43.0 °F 34.0 °F 42.8 °F 99% 29.65 in 4.0 mi NNE 21.9 mph - 0.00 in Rain Light Rain
2:48 PM 42.8 °F 33.3 °F 42.8 °F 100% 29.66 in 2.0 mi NNE 24.2 mph - N/A Rain Light Rain
2:55 PM 42.6 °F 33.1 °F 42.1 °F 98% 29.67 in 4.0 mi NNE 24.2 mph - 0.02 in Rain Light Rain
3:55 PM 42.8 °F 33.3 °F 42.8 °F 100% 29.68 in 4.0 mi NNE 24.2 mph - 0.02 in Rain Light Rain
4:48 PM 42.8 °F 33.5 °F 42.8 °F 100% 29.69 in 2.0 mi NNE 23.0 mph - N/A Rain Light Rain Showers
4:55 PM 42.8 °F 34.0 °F 42.6 °F 99% 29.69 in 2.5 mi NNE 20.7 mph - 0.02 in Rain Light Rain Showers
5:08 PM 42.8 °F 33.3 °F 42.8 °F 100% 29.70 in 4.0 mi NNE 24.2 mph - N/A Rain Light Rain Showers
5:48 PM 42.8 °F 33.3 °F 42.8 °F 100% 29.70 in 1.8 mi NNE 24.2 mph - N/A Rain Light Rain
5:55 PM 42.4 °F 32.8 °F 42.3 °F 99% 29.70 in 2.5 mi NNE 24.2 mph - 0.02 in Rain Light Rain
6:08 PM 42.8 °F 33.3 °F 42.8 °F 100% 29.70 in 3.0 mi NNE 24.2 mph - N/A Rain Light Rain
6:48 PM 42.8 °F 33.1 °F 42.8 °F 100% 29.71 in 2.0 mi NNE 25.3 mph - N/A Rain Light Rain
6:55 PM 42.4 °F 33.1 °F 42.6 °F 100% 29.71 in 1.8 mi NNE 23.0 mph - 0.00 in Rain Light Rain
7:08 PM 42.8 °F 33.1 °F 42.8 °F 100% 29.71 in 1.8 mi NNE 25.3 mph - N/A Rain Light Rain
7:28 PM 42.8 °F 33.5 °F 42.8 °F 100% 29.72 in 2.0 mi NNE 23.0 mph - N/A Rain Light Rain
7:48 PM 42.8 °F 33.8 °F 42.8 °F 100% 29.73 in 3.0 mi NNE 21.9 mph - N/A Rain Light Rain
7:55 PM 42.3 °F 32.4 °F 42.3 °F 100% 29.72 in 3.0 mi NNE 25.3 mph - 0.02 in Rain Light Rain
8:08 PM 42.8 °F 33.1 °F 42.8 °F 100% 29.73 in 10.0 mi NNE 25.3 mph - N/A Rain Light Rain
8:28 PM 42.8 °F 33.5 °F 42.8 °F 100% 29.74 in 2.0 mi NNE 23.0 mph - N/A Rain Light Rain Showers
8:55 PM - - - N/A% 29.74 in 2.5 mi NNE 24.2 mph - N/A Rain Light Rain Showers
9:28 PM 41.0 °F 30.9 °F 41.0 °F 100% 29.74 in 4.0 mi NNE 24.2 mph - N/A Rain Light Rain Showers
9:55 PM 41.5 °F 31.6 °F 41.7 °F 100% 29.75 in 6.0 mi NNE 24.2 mph - 0.00 in Rain Light Rain
10:55 PM 41.2 °F 31.4 °F 41.5 °F 100% 29.76 in 2.0 mi NNE 23.0 mph - N/A Rain Light Rain
11:28 PM 41.0 °F 31.4 °F 41.0 °F 100% 29.77 in 1.8 mi NNE 21.9 mph - N/A Rain Light Rain
11:48 PM 41.0 °F 31.1 °F 41.0 °F 100% 29.78 in 2.0 mi NNE 23.0 mph - N/A Rain Light Rain
11:55 PM 41.2 °F 31.4 °F 41.5 °F 100% 29.78 in 1.8 mi NNE 23.0 mph - 0.02 in Rain Light Rain